User: anonymous   Login
Location: Auttagershofen
(48.1940°N, 10.0237°E)
Time: 06:36:29
(UTC+00:00)
Language:

Gbstr 26 Del rocket - Orbit

View from above orbital plane
View from above orbital plane
View from above satellite
View from above satellite

Ground track
Ground track

The orbit is defined by the following mean orbital elements,

1 25876U          26067.94622068 +.00000000 +00000-0 +26052-3 0 00007
2 25876  51.7627 304.2503 0502372 346.2414  12.5237 14.11835757    00
Epoch (UTC): 08 March 2026 22:42:33
Eccentricity: 0.0502372
inclination: 51.7627°
perigee height: 490 km
apogee height: 1216 km
right ascension of ascending node: 304.2503°
argument of perigee: 346.2414°
revolutions per day: 14.11835757
mean anomaly at epoch: 12.5237°

The dashed part of the orbit path shows where the satellite is in the earth's shadow,  

DLR